Wind_Speed
2 4 3 1 4 8 10 11 9 6 8 11 12 3 3 2 10 15 9 14 14 12 7 4 4 1 3 4 4 3 4 2 5 6 3 7 3 5 3 3 7 7 5 4 6
3 4 2 2 3 6 8 7 11 11 9 8 6 11 3 4 3 16 15 15 13 11 5 3 1 1 3 3 4 5 4 3 1 1 4 7 4 6 3 5 7 10 9 7 7
4 4 3 2 5 8 7 4 4 11 15 13 7 7 10 2 2 14 14 13 12 11 5 4 1 2 5 5 7 4 3 3 2 3 4 6 3 4 4 5 12 14 15 12 10
4 4 4 6 7 6 5 1 1 3 10 19 14 4 10 6 2 16 14 11 12 10 5 3 1 2 5 4 4 6 4 2 4 3 3 4 2 4 10 3 2 9 13 14 11
8 6 5 6 5 4 6 4 4 5 3 6 19 13 3 8 10 16 13 8 11 9 4 1 4 4 5 4 3 4 2 4 4 3 1 2 6 6 12 9 8 10 15 13 11
9 9 9 6 4 2 9 8 4 4 1 2 3 18 12 7 14 15 11 7 9 14 14 9 9 10 10 5 4 4 6 4 3 2 2 1 2 4 2 5 14 15 15 13 11
11 9 9 7 3 6 6 5 4 5 3 2 3 3 18 14 16 14 9 8 7 11 14 15 8 2 4 4 6 6 3 2 5 8 1 7 2 6 4 6 16 19 16 13 13
12 10 6 7 2 4 5 5 3 7 4 5 3 2 4 13 20 9 9 7 8 9 8 11 7 12 7 8 4 4 4 4 1 9 3 5 6 4 5 8 14 20 21 18 16
13 11 6 6 6 5 2 7 5 4 2 9 5 2 3 8 22 17 10 7 2 7 10 8 5 8 5 3 4 7 1 3 7 5 4 6 7 3 6 8 14 17 25 23 19
14 13 9 6 9 5 6 5 9 6 2 2 6 2 10 9 15 21 6 9 5 1 3 6 7 5 5 6 1 3 4 4 5 5 4 4 13 8 17 12 17 18 21 23 20
12 14 12 7 10 5 4 4 3 1 14 12 7 4 9 9 8 21 11 4 6 10 5 8 9 4 3 3 2 1 2 4 5 2 5 3 10 14 11 5 11 16 21 22 20
12 13 12 7 10 5 1 2 1 8 10 10 7 8 9 11 5 24 11 4 9 5 7 6 3 1 2 1 2 3 3 5 6 1 2 6 14 6 4 1 4 20 22 19 19
12 13 12 8 7 7 4 5 8 4 4 5 7 7 8 7 7 19 17 5 7 6 7 6 0 2 0 2 6 1 2 2 5 9 1 7 6 2 1 3 4 7 20 18 16
12 14 12 9 3 4 3 4 2 1 4 5 5 7 8 3 4 15 15 5 7 3 3 5 2 1 0 2 1 4 1 1 5 5 3 5 4 4 2 4 6 5 8 12 13
12 12 13 8 5 3 1 1 1 2 3 3 4 5 6 6 6 11 13 6 4 3 1 2 4 4 3 2 1 5 2 3 1 3 3 4 3 6 2 2 3 5 9 11 11
12 11 13 8 7 4 3 2 1 6 4 2 3 7 4 8 6 11 6 7 5 2 5 2 1 3 2 3 2 4 2 1 3 2 3 4 3 4 4 5 4 3 11 13 12
10 9 13 10 6 4 2 1 5 5 2 3 3 5 1 6 6 9 6 8 3 5 7 3 2 1 4 3 1 6 5 4 6 4 4 3 2 7 2 1 7 10 13 12 8
10 6 12 10 7 4 1 5 2 2 2 2 2 3 3 6 4 7 2 3 2 2 3 3 6 4 5 3 3 4 4 4 4 3 5 0 5 4 3 1 17 15 13 8 5
10 6 8 13 8 4 0 4 4 2 1 4 2 3 3 1 0 4 3 3 3 1 4 3 5 1 3 2 2 0 2 2 5 1 3 3 7 5 3 2 8 11 9 6 3
10 6 6 14 8 4 4 3 1 1 0 0 1 2 2 4 4 5 1 3 2 2 1 2 4 1 2 2 4 3 2 3 3 2 5 5 5 5 6 9 7 9 8 4 1
9 4 8 14 7 2 3 3 1 0 1 3 1 1 1 2 1 2 2 2 3 4 3 3 3 2 1 4 5 2 2 4 3 3 4 4 6 6 9 11 13 15 11 4 4
5 3 9 11 4 4 2 1 2 2 1 1 3 3 2 1 2 3 4 5 6 8 4 3 5 3 7 1 1 2 5 4 3 3 2 2 8 0 5 9 11 23 20 9 15
9 4 7 8 3 2 1 0 1 2 1 1 1 2 3 3 2 3 3 1 8 6 5 5 1 4 4 3 3 3 4 3 1 2 9 6 7 3 2 6 12 22 29 22 26
6 3 6 9 7 5 1 0 1 2 1 2 1 2 2 3 5 3 3 3 8 6 5 7 3 9 13 10 4 3 6 7 5 4 7 15 21 18 17 7 5 19 25 25 31
7 3 3 3 5 3 2 1 1 2 3 4 2 6 6 2 2 5 4 2 5 6 5 3 6 6 14 14 10 14 15 12 14 18 13 26 11 21 12 6 14 28 26 26 16
5 4 4 3 4 3 2 2 3 2 4 3 4 4 7 6 9 9 6 5 6 3 6 2 4 1 5 15 15 14 16 20 22 16 18 24 25 26 37 28 28 27 16 16 22
9 8 4 3 2 2 2 2 2 1 6 9 10 3 4 14 23 23 17 13 8 9 9 6 4 2 8 2 5 10 13 14 2 3 6 7 13 3 4 6 9 15 16 21 22
Wind_Direction
49 31 33 74 359 15 22 26 44 39 27 30 32 35 240 317 24 22 17 2 355 358 345 351 4 88 108 89 73 101 65 161 186 159 166 161 155 179 207 191 191 201 200 176 176
14 7 26 21 6 4 5 24 40 36 18 359 358 24 318 263 353 16 10 356 344 343 342 349 338 117 98 62 33 71 99 156 75 111 166 173 189 181 187 205 224 217 206 187 173
41 40 50 28 331 331 338 353 29 40 40 30 27 28 24 49 81 1 359 352 346 342 344 2 32 98 79 43 21 40 111 148 76 94 130 153 191 201 194 236 223 216 199 184 179
18 352 329 316 319 331 328 312 344 20 46 37 31 31 33 50 49 351 350 352 360 -0 357 6 52 81 68 61 31 84 66 80 137 105 130 171 227 244 218 224 248 209 190 180 177
32 20 -0 357 359 39 54 45 343 301 287 22 41 33 35 48 10 360 360 14 19 20 30 51 62 97 94 92 72 74 130 85 109 92 100 240 252 254 250 237 236 182 173 176 174
21 20 16 11 28 22 331 312 317 4 316 325 348 39 46 60 6 8 18 28 35 47 53 70 78 97 97 68 66 102 104 105 69 31 325 287 278 319 240 214 193 179 174 179 173
14 9 14 12 14 -0 12 46 78 39 24 345 12 29 41 40 21 11 22 39 46 50 56 60 60 54 86 83 98 122 68 130 28 335 240 329 221 224 190 163 185 191 187 187 178
10 6 3 8 1 31 44 57 67 35 52 34 27 24 78 23 21 22 25 33 39 39 41 47 54 64 56 107 49 51 57 11 40 6 334 17 270 191 181 178 202 207 203 201 191
10 7 355 355 342 265 9 24 348 250 27 31 29 53 36 1 9 16 25 28 35 55 42 37 60 64 45 50 26 14 358 344 322 46 314 33 272 229 202 265 244 225 213 203 195
10 8 1 350 340 299 247 251 46 33 280 347 21 80 19 343 9 8 7 25 30 2 32 43 51 64 28 38 203 309 337 317 253 334 347 275 263 272 289 254 239 225 199 198 198
1 5 6 348 351 327 240 224 267 42 67 75 45 51 360 3 22 12 22 22 30 53 36 24 60 45 333 359 349 286 261 266 260 26 332 256 285 290 302 235 229 211 198 200 201
357 1 0 349 2 2 213 209 191 138 82 58 48 35 12 7 3 17 26 48 46 44 337 29 64 300 279 276 269 222 285 278 282 184 355 342 300 274 281 271 224 205 198 197 201
360 1 0 353 11 30 75 125 129 121 76 32 32 21 13 7 34 6 17 34 63 52 19 99 164 296 171 33 5 253 213 302 254 322 226 321 296 317 146 75 66 182 209 211 199
3 7 6 5 12 17 83 98 85 127 71 327 356 8 357 11 40 11 13 35 39 101 78 89 322 8 58 74 19 305 91 302 287 15 279 13 277 296 349 29 47 77 169 190 205
1 5 10 15 8 16 74 110 54 99 33 313 337 350 3 61 329 5 17 40 69 61 98 312 8 8 33 4 33 268 330 287 73 82 31 350 67 266 13 52 58 48 109 129 138
356 359 7 10 20 37 67 92 45 44 261 355 328 350 16 23 14 346 24 53 69 96 44 86 49 47 315 301 240 315 306 106 59 91 14 261 107 265 197 200 154 121 123 121 118
351 358 4 9 14 22 42 27 38 123 357 335 340 21 54 346 1 26 26 12 58 40 8 348 53 53 18 337 187 27 32 337 351 4 231 200 2 248 279 25 163 158 130 113 113
347 343 6 7 10 11 7 54 120 170 235 15 352 325 48 4 25 6 55 37 81 49 76 61 329 24 359 115 195 43 125 143 263 288 292 1 247 260 258 205 150 141 129 107 73
344 329 349 360 356 355 74 57 225 166 24 357 312 32 357 27 313 39 55 188 231 111 127 62 277 141 55 120 105 148 47 181 100 81 31 259 292 312 98 127 167 161 150 129 78
340 326 345 354 349 351 75 205 149 33 58 10 71 50 313 311 354 28 337 227 209 178 156 204 316 101 113 106 49 114 161 38 11 343 298 279 281 244 210 208 212 211 186 193 279
338 317 344 348 344 40 127 207 191 122 14 27 163 276 225 299 306 292 243 230 196 147 92 129 111 266 132 188 185 34 7 40 118 125 200 297 261 214 209 195 197 197 180 207 278
354 358 345 348 8 45 99 176 150 172 140 62 94 133 205 180 262 263 243 217 175 158 163 209 152 263 246 312 205 122 202 154 134 229 220 221 271 50 226 228 241 220 209 260 344
345 334 356 357 90 19 266 218 200 152 225 158 207 205 198 232 334 221 247 200 172 162 174 192 238 309 287 353 8 191 198 179 83 48 211 242 255 196 231 241 247 244 240 266 319
356 10 22 51 69 113 104 185 252 210 210 196 187 159 168 239 215 276 255 199 200 211 199 176 199 212 257 254 140 206 196 207 199 211 262 230 272 294 279 275 228 250 256 283 297
23 60 26 327 10 43 23 306 249 254 223 209 211 218 177 213 249 230 232 198 202 209 175 202 235 213 252 276 275 261 262 231 210 241 248 276 266 273 276 257 273 286 285 292 289
41 9 8 357 329 343 351 236 221 274 159 231 212 182 183 191 207 254 210 202 216 145 165 115 270 277 255 247 252 265 257 246 245 249 264 269 277 272 277 281 275 284 308 313 317
35 13 359 329 14 66 237 277 252 260 247 242 220 180 205 238 264 270 263 257 234 156 185 181 219 190 281 19 298 271 240 236 177 228 172 195 233 355 325 307 306 327 307 309 317
Height
1530 1529 1528 1528 1528 1527 1526 1524 1522 1521 1520 1517 1515 1514 1514 1514 1513 1511 1509 1510 1506 1506 1504 1503 1503 1502 1502 1502 1503 1504 1518 1527 1524 1529 1525 1528 1529 1530 1531 1531 1531 1531 1531 1532 1532
1530 1530 1529 1529 1528 1528 1527 1525 1524 1522 1520 1518 1517 1515 1514 1513 1513 1511 1512 1510 1507 1505 1504 1503 1502 1502 1502 1503 1505 1506 1520 1520 1524 1524 1525 1527 1528 1529 1531 1530 1529 1528 1529 1530 1531
1531 1531 1530 1530 1529 1528 1527 1526 1525 1524 1521 1519 1517 1516 1514 1512 1514 1514 1512 1510 1507 1505 1503 1502 1502 1502 1503 1505 1509 1512 1520 1522 1524 1524 1524 1526 1528 1528 1528 1528 1524 1524 1526 1528 1530
1533 1531 1530 1530 1529 1527 1526 1525 1525 1524 1523 1521 1518 1516 1515 1514 1519 1515 1512 1510 1508 1505 1503 1502 1501 1502 1506 1510 1511 1517 1522 1521 1524 1524 1525 1526 1526 1526 1525 1522 1522 1523 1525 1527 1529
1533 1532 1530 1529 1528 1527 1526 1526 1525 1524 1523 1523 1520 1517 1516 1516 1519 1516 1512 1511 1508 1505 1503 1502 1501 1503 1509 1512 1513 1517 1522 1523 1524 1525 1525 1526 1525 1524 1519 1520 1521 1522 1524 1526 1528
1534 1532 1530 1529 1528 1527 1526 1524 1524 1523 1523 1522 1522 1521 1517 1520 1520 1516 1514 1512 1510 1507 1505 1503 1504 1505 1508 1514 1516 1521 1522 1524 1525 1525 1525 1525 1524 1523 1516 1515 1519 1521 1523 1525 1527
1534 1532 1531 1529 1528 1528 1526 1524 1524 1524 1523 1522 1522 1521 1521 1525 1520 1517 1515 1513 1511 1510 1508 1507 1507 1507 1511 1516 1520 1521 1523 1525 1525 1525 1524 1523 1523 1520 1514 1515 1517 1519 1521 1523 1525
1536 1533 1531 1530 1529 1528 1527 1526 1525 1524 1523 1523 1522 1522 1522 1523 1521 1519 1516 1514 1513 1512 1511 1510 1510 1510 1514 1520 1522 1524 1525 1528 1525 1525 1523 1523 1517 1512 1513 1514 1515 1516 1518 1520 1522
1536 1534 1532 1530 1529 1528 1528 1527 1525 1525 1524 1523 1523 1522 1525 1524 1522 1518 1517 1515 1514 1513 1512 1512 1512 1515 1520 1524 1528 1533 1534 1530 1527 1528 1528 1524 1518 1512 1512 1512 1512 1511 1512 1516 1519
1537 1534 1532 1530 1528 1527 1527 1528 1526 1525 1524 1524 1524 1526 1527 1527 1524 1520 1517 1515 1514 1513 1514 1513 1515 1524 1532 1532 1549 1536 1537 1536 1535 1530 1529 1526 1518 1510 1508 1506 1504 1506 1508 1512 1516
1537 1535 1532 1530 1528 1526 1527 1527 1530 1529 1526 1529 1531 1530 1529 1528 1525 1522 1517 1516 1515 1515 1523 1521 1534 1545 1545 1545 1543 1542 1542 1541 1533 1533 1531 1521 1520 1506 1502 1502 1501 1502 1505 1509 1513
1538 1535 1533 1531 1529 1527 1527 1527 1527 1529 1531 1531 1531 1531 1530 1527 1526 1523 1520 1519 1519 1527 1525 1529 1542 1544 1544 1544 1543 1541 1542 1544 1532 1532 1535 1526 1515 1504 1500 1499 1498 1499 1503 1506 1511
1538 1536 1533 1531 1530 1529 1528 1528 1528 1529 1530 1533 1532 1531 1531 1530 1530 1527 1524 1524 1526 1532 1536 1535 1543 1543 1542 1543 1544 1539 1542 1542 1546 1537 1533 1533 1511 1497 1497 1498 1498 1498 1502 1507 1510
1539 1536 1534 1531 1533 1530 1530 1530 1530 1530 1541 1537 1534 1534 1533 1530 1532 1530 1528 1529 1530 1535 1540 1544 1545 1544 1542 1543 1547 1547 1544 1545 1545 1548 1542 1536 1522 1500 1498 1500 1500 1501 1503 1506 1509
1540 1537 1535 1533 1532 1531 1532 1531 1531 1531 1572 1540 1536 1535 1533 1533 1535 1533 1531 1528 1534 1538 1540 1542 1545 1544 1541 1545 1547 1543 1545 1546 1546 1561 1561 1540 1548 1507 1502 1501 1503 1504 1504 1506 1507
1540 1538 1536 1534 1533 1532 1532 1532 1532 1551 1570 1539 1538 1537 1535 1535 1536 1533 1532 1532 1536 1538 1541 1547 1548 1548 1548 1547 1546 1546 1544 1545 1551 1558 1554 1556 1550 1513 1504 1500 1504 1504 1504 1506 1507
1540 1538 1537 1535 1534 1532 1532 1533 1550 1566 1543 1543 1543 1543 1544 1544 1540 1541 1544 1549 1553 1548 1550 1544 1547 1549 1549 1546 1546 1548 1550 1550 1538 1549 1533 1548 1552 1508 1500 1499 1500 1502 1504 1505 1507
1540 1539 1537 1535 1534 1533 1533 1536 1549 1544 1544 1548 1547 1545 1545 1548 1547 1547 1547 1555 1556 1554 1567 1563 1547 1551 1553 1556 1557 1555 1563 1565 1557 1553 1545 1541 1534 1505 1502 1500 1501 1503 1505 1507 1507
1540 1538 1537 1535 1534 1533 1535 1557 1551 1547 1550 1549 1547 1545 1546 1547 1549 1548 1554 1561 1557 1557 1557 1567 1547 1554 1554 1555 1558 1554 1562 1562 1584 1600 1584 1536 1518 1503 1502 1503 1503 1503 1502 1502 1503
1540 1538 1537 1535 1533 1533 1537 1550 1550 1551 1550 1549 1545 1550 1547 1551 1548 1550 1549 1556 1556 1556 1558 1559 1564 1550 1554 1555 1558 1557 1561 1562 1578 1562 1552 1527 1543 1503 1505 1503 1503 1502 1501 1502 1502
1539 1537 1537 1535 1533 1533 1552 1554 1551 1551 1552 1551 1550 1551 1558 1556 1553 1553 1554 1553 1552 1556 1556 1562 1566 1550 1554 1554 1557 1565 1569 1573 1573 1574 1570 1569 1521 1500 1497 1497 1498 1496 1497 1498 1498
1539 1539 1537 1535 1537 1545 1551 1549 1550 1550 1551 1551 1552 1555 1555 1554 1552 1552 1550 1549 1550 1552 1559 1559 1567 1568 1543 1560 1560 1559 1559 1563 1543 1544 1562 1560 1506 1496 1493 1492 1494 1493 1491 1492 1494
1540 1539 1538 1535 1551 1552 1550 1550 1550 1550 1550 1551 1551 1552 1554 1553 1557 1550 1547 1549 1550 1551 1557 1556 1559 1551 1535 1556 1559 1558 1560 1562 1551 1547 1534 1527 1506 1491 1492 1492 1491 1492 1491 1489 1489
1542 1543 1540 1539 1544 1548 1549 1549 1549 1549 1549 1550 1551 1552 1553 1552 1552 1551 1547 1548 1549 1550 1550 1551 1553 1538 1526 1520 1534 1541 1543 1548 1536 1533 1520 1509 1484 1487 1484 1491 1489 1488 1487 1487 1485
1546 1550 1551 1554 1549 1550 1550 1551 1548 1547 1549 1548 1549 1549 1552 1554 1548 1550 1547 1547 1547 1547 1549 1551 1548 1545 1534 1529 1528 1521 1522 1523 1531 1510 1512 1477 1507 1485 1484 1485 1482 1481 1480 1480 1479
1550 1553 1552 1552 1552 1551 1551 1549 1549 1547 1548 1547 1548 1543 1547 1551 1544 1541 1540 1541 1536 1546 1547 1550 1542 1543 1535 1524 1522 1521 1517 1514 1509 1514 1512 1499 1495 1479 1477 1479 1477 1474 1475 1475 1475
1553 1554 1553 1553 1552 1554 1552 1548 1548 1547 1541 1540 1540 1542 1544 1538 1534 1532 1532 1531 1530 1535 1542 1547 1543 1542 1507 1525 1525 1508 1498 1495 1514 1518 1507 1512 1485 1480 1479 1476 1475 1476 1476 1474 1472